Year,Month,Day,Hour,Minute,Value (Times are PST for insolation in W/m^2)
2008,01,27,00,00,0.00
2008,01,27,00,01,0.00
2008,01,27,00,02,0.00
2008,01,27,00,03,0.00
2008,01,27,00,04,0.00
2008,01,27,00,05,0.00
2008,01,27,00,06,0.00
2008,01,27,00,07,0.00
2008,01,27,00,08,0.00
2008,01,27,00,09,0.00
2008,01,27,00,10,0.00
2008,01,27,00,11,0.00
2008,01,27,00,12,0.00
2008,01,27,00,13,0.00
2008,01,27,00,14,0.00
2008,01,27,00,15,0.00
2008,01,27,00,16,0.00
2008,01,27,00,17,0.00
2008,01,27,00,18,0.00
2008,01,27,00,19,0.00
2008,01,27,00,20,0.00
2008,01,27,00,21,0.00
2008,01,27,00,22,0.00
2008,01,27,00,23,0.00
2008,01,27,00,24,0.00
2008,01,27,00,25,0.00
2008,01,27,00,26,0.00
2008,01,27,00,27,0.00
2008,01,27,00,28,0.00
2008,01,27,00,29,0.00
2008,01,27,00,30,0.00
2008,01,27,00,31,0.00
2008,01,27,00,32,0.00
2008,01,27,00,33,0.00
2008,01,27,00,34,0.00
2008,01,27,00,35,0.00
2008,01,27,00,36,0.00
2008,01,27,00,37,0.00
2008,01,27,00,38,0.00
2008,01,27,00,39,0.00
2008,01,27,00,40,0.00
2008,01,27,00,41,0.00
2008,01,27,00,42,0.00
2008,01,27,00,43,0.00
2008,01,27,00,44,0.00
2008,01,27,00,45,0.00
2008,01,27,00,46,0.00
2008,01,27,00,47,0.00
2008,01,27,00,48,0.00
2008,01,27,00,49,0.00
2008,01,27,00,50,0.00
2008,01,27,00,51,0.00
2008,01,27,00,52,0.00
2008,01,27,00,53,0.00
2008,01,27,00,54,0.00
2008,01,27,00,55,0.00
2008,01,27,00,56,0.00
2008,01,27,00,57,0.00
2008,01,27,00,58,0.00
2008,01,27,00,59,0.00
2008,01,27,01,00,0.00
2008,01,27,01,01,0.00
2008,01,27,01,02,0.00
2008,01,27,01,03,0.00
2008,01,27,01,04,0.00
2008,01,27,01,05,0.00
2008,01,27,01,06,0.00
2008,01,27,01,07,0.00
2008,01,27,01,08,0.00
2008,01,27,01,09,0.00
2008,01,27,01,10,0.00
2008,01,27,01,11,0.00
2008,01,27,01,12,0.00
2008,01,27,01,13,0.00
2008,01,27,01,14,0.00
2008,01,27,01,15,0.00
2008,01,27,01,16,0.00
2008,01,27,01,17,0.00
2008,01,27,01,18,0.00
2008,01,27,01,19,0.00
2008,01,27,01,20,0.00
2008,01,27,01,21,0.00
2008,01,27,01,22,0.00
2008,01,27,01,23,0.00
2008,01,27,01,24,0.00
2008,01,27,01,25,0.00
2008,01,27,01,26,0.00
2008,01,27,01,27,0.00
2008,01,27,01,28,0.00
2008,01,27,01,29,0.00
2008,01,27,01,30,0.00
2008,01,27,01,31,0.00
2008,01,27,01,32,0.00
2008,01,27,01,33,0.00
2008,01,27,01,34,0.00
2008,01,27,01,35,0.00
2008,01,27,01,36,0.00
2008,01,27,01,37,0.00
2008,01,27,01,38,0.00
2008,01,27,01,39,0.00
2008,01,27,01,40,0.00
2008,01,27,01,41,0.00
2008,01,27,01,42,0.00
2008,01,27,01,43,0.00
2008,01,27,01,44,0.00
2008,01,27,01,45,0.00
2008,01,27,01,46,0.00
2008,01,27,01,47,0.00
2008,01,27,01,48,0.00
2008,01,27,01,49,0.00
2008,01,27,01,50,0.00
2008,01,27,01,51,0.00
2008,01,27,01,52,0.00
2008,01,27,01,53,0.00
2008,01,27,01,54,0.00
2008,01,27,01,55,0.00
2008,01,27,01,56,0.00
2008,01,27,01,57,0.00
2008,01,27,01,58,0.00
2008,01,27,01,59,0.00
2008,01,27,02,00,0.00
2008,01,27,02,01,0.00
2008,01,27,02,02,0.00
2008,01,27,02,03,0.00
2008,01,27,02,04,0.00
2008,01,27,02,05,0.00
2008,01,27,02,06,0.00
2008,01,27,02,07,0.00
2008,01,27,02,08,0.00
2008,01,27,02,09,0.00
2008,01,27,02,10,0.00
2008,01,27,02,11,0.00
2008,01,27,02,12,0.00
2008,01,27,02,13,0.00
2008,01,27,02,14,0.00
2008,01,27,02,15,0.00
2008,01,27,02,16,0.00
2008,01,27,02,17,0.00
2008,01,27,02,18,0.00
2008,01,27,02,19,0.00
2008,01,27,02,20,0.00
2008,01,27,02,21,0.00
2008,01,27,02,22,0.00
2008,01,27,02,23,0.00
2008,01,27,02,24,0.00
2008,01,27,02,25,0.00
2008,01,27,02,26,0.00
2008,01,27,02,27,0.00
2008,01,27,02,28,0.00
2008,01,27,02,29,0.00
2008,01,27,02,30,0.00
2008,01,27,02,31,0.00
2008,01,27,02,32,0.00
2008,01,27,02,33,0.00
2008,01,27,02,34,0.00
2008,01,27,02,35,0.00
2008,01,27,02,36,0.00
2008,01,27,02,37,0.00
2008,01,27,02,38,0.00
2008,01,27,02,39,0.00
2008,01,27,02,40,0.00
2008,01,27,02,41,0.00
2008,01,27,02,42,0.00
2008,01,27,02,43,0.00
2008,01,27,02,44,0.00
2008,01,27,02,45,0.00
2008,01,27,02,46,0.00
2008,01,27,02,47,0.00
2008,01,27,02,48,0.00
2008,01,27,02,49,0.00
2008,01,27,02,50,0.00
2008,01,27,02,51,0.00
2008,01,27,02,52,0.00
2008,01,27,02,53,0.00
2008,01,27,02,54,0.00
2008,01,27,02,55,0.00
2008,01,27,02,56,0.00
2008,01,27,02,57,0.00
2008,01,27,02,58,0.00
2008,01,27,02,59,0.00
2008,01,27,03,00,0.00
2008,01,27,03,01,0.00
2008,01,27,03,02,0.00
2008,01,27,03,03,0.00
2008,01,27,03,04,0.00
2008,01,27,03,05,0.00
2008,01,27,03,06,0.00
2008,01,27,03,07,0.00
2008,01,27,03,08,0.00
2008,01,27,03,09,0.00
2008,01,27,03,10,0.00
2008,01,27,03,11,0.00
2008,01,27,03,12,0.00
2008,01,27,03,13,0.00
2008,01,27,03,14,0.00
2008,01,27,03,15,0.00
2008,01,27,03,16,0.00
2008,01,27,03,17,0.00
2008,01,27,03,18,0.00
2008,01,27,03,19,0.00
2008,01,27,03,20,0.00
2008,01,27,03,21,0.00
2008,01,27,03,22,0.00
2008,01,27,03,23,0.00
2008,01,27,03,24,0.00
2008,01,27,03,25,0.00
2008,01,27,03,26,0.00
2008,01,27,03,27,0.00
2008,01,27,03,28,0.00
2008,01,27,03,29,0.00
2008,01,27,03,30,0.00
2008,01,27,03,31,0.00
2008,01,27,03,32,0.00
2008,01,27,03,33,0.00
2008,01,27,03,34,0.00
2008,01,27,03,35,0.00
2008,01,27,03,36,0.00
2008,01,27,03,37,0.00
2008,01,27,03,38,0.00
2008,01,27,03,39,0.00
2008,01,27,03,40,0.00
2008,01,27,03,41,0.00
2008,01,27,03,42,0.00
2008,01,27,03,43,0.00
2008,01,27,03,44,0.00
2008,01,27,03,45,0.00
2008,01,27,03,46,0.00
2008,01,27,03,47,0.00
2008,01,27,03,48,0.00
2008,01,27,03,49,0.00
2008,01,27,03,50,0.00
2008,01,27,03,51,0.00
2008,01,27,03,52,0.00
2008,01,27,03,53,0.00
2008,01,27,03,54,0.00
2008,01,27,03,55,0.00
2008,01,27,03,56,0.00
2008,01,27,03,57,0.00
2008,01,27,03,58,0.00
2008,01,27,03,59,0.00
2008,01,27,04,00,0.00
2008,01,27,04,01,0.00
2008,01,27,04,02,0.00
2008,01,27,04,03,0.00
2008,01,27,04,04,0.00
2008,01,27,04,05,0.00
2008,01,27,04,06,0.00
2008,01,27,04,07,0.00
2008,01,27,04,08,0.00
2008,01,27,04,10,0.00
2008,01,27,04,15,0.00
2008,01,27,04,16,0.00
2008,01,27,04,17,0.00
2008,01,27,04,18,0.00
2008,01,27,04,19,0.00
2008,01,27,04,20,0.00
2008,01,27,04,21,0.00
2008,01,27,04,22,0.00
2008,01,27,04,23,0.00
2008,01,27,04,24,0.00
2008,01,27,04,25,0.00
2008,01,27,04,26,0.00
2008,01,27,04,33,0.00
2008,01,27,04,34,0.00
2008,01,27,04,35,0.00
2008,01,27,04,36,0.00
2008,01,27,04,37,0.00
2008,01,27,04,38,0.00
2008,01,27,04,39,0.00
2008,01,27,04,40,0.00
2008,01,27,04,41,0.00
2008,01,27,04,42,0.00
2008,01,27,04,43,0.00
2008,01,27,04,44,0.00
2008,01,27,04,45,0.00
2008,01,27,04,46,0.00
2008,01,27,04,47,0.00
2008,01,27,04,48,0.00
2008,01,27,04,49,0.00
2008,01,27,04,50,0.00
2008,01,27,04,51,0.00
2008,01,27,04,52,0.00
2008,01,27,04,53,0.00
2008,01,27,04,54,0.00
2008,01,27,04,55,0.00
2008,01,27,04,56,0.00
2008,01,27,04,57,0.00
2008,01,27,04,58,0.00
2008,01,27,04,59,0.00
2008,01,27,05,00,0.00
2008,01,27,05,01,0.00
2008,01,27,05,02,0.00
2008,01,27,05,03,0.00
2008,01,27,05,04,0.00
2008,01,27,05,05,0.00
2008,01,27,05,06,0.00
2008,01,27,05,07,0.00
2008,01,27,05,08,0.00
2008,01,27,05,09,0.00
2008,01,27,05,10,0.00
2008,01,27,05,11,0.00
2008,01,27,05,12,0.00
2008,01,27,05,13,0.00
2008,01,27,05,14,0.00
2008,01,27,05,15,0.00
2008,01,27,05,16,0.00
2008,01,27,05,17,0.00
2008,01,27,05,18,0.00
2008,01,27,05,19,0.00
2008,01,27,05,20,0.00
2008,01,27,05,21,0.00
2008,01,27,05,22,0.00
2008,01,27,05,23,0.00
2008,01,27,05,24,0.00
2008,01,27,05,25,0.00
2008,01,27,05,26,0.00
2008,01,27,05,27,0.00
2008,01,27,05,28,0.00
2008,01,27,05,29,0.00
2008,01,27,05,30,0.00
2008,01,27,05,31,0.00
2008,01,27,05,32,0.00
2008,01,27,05,33,0.00
2008,01,27,05,34,0.00
2008,01,27,05,35,0.00
2008,01,27,05,36,0.00
2008,01,27,05,37,0.00
2008,01,27,05,38,0.00
2008,01,27,05,39,0.00
2008,01,27,05,40,0.00
2008,01,27,05,41,0.00
2008,01,27,05,42,0.00
2008,01,27,05,43,0.00
2008,01,27,05,44,0.00
2008,01,27,05,45,0.00
2008,01,27,05,46,0.00
2008,01,27,05,47,0.00
2008,01,27,05,48,0.00
2008,01,27,05,49,0.00
2008,01,27,05,50,0.00
2008,01,27,05,51,0.00
2008,01,27,05,52,0.00
2008,01,27,05,53,0.00
2008,01,27,05,54,0.00
2008,01,27,05,55,0.00
2008,01,27,05,56,0.00
2008,01,27,05,57,0.00
2008,01,27,05,58,0.00
2008,01,27,05,59,0.00
2008,01,27,06,00,0.00
2008,01,27,06,01,0.00
2008,01,27,06,02,0.00
2008,01,27,06,03,0.00
2008,01,27,06,04,0.00
2008,01,27,06,05,0.00
2008,01,27,06,06,0.00
2008,01,27,06,07,0.00
2008,01,27,06,08,0.00
2008,01,27,06,09,0.00
2008,01,27,06,10,0.00
2008,01,27,06,11,0.00
2008,01,27,06,12,0.00
2008,01,27,06,13,0.00
2008,01,27,06,14,0.00
2008,01,27,06,15,0.00
2008,01,27,06,16,0.00
2008,01,27,06,17,0.00
2008,01,27,06,18,0.00
2008,01,27,06,19,0.00
2008,01,27,06,20,0.00
2008,01,27,06,21,0.00
2008,01,27,06,22,0.00
2008,01,27,06,23,0.00
2008,01,27,06,24,0.00
2008,01,27,06,25,0.00
2008,01,27,06,26,0.00
2008,01,27,06,27,0.00
2008,01,27,06,28,0.00
2008,01,27,06,29,0.00
2008,01,27,06,30,0.00
2008,01,27,06,31,0.00
2008,01,27,06,32,0.00
2008,01,27,06,33,0.00
2008,01,27,06,34,0.00
2008,01,27,06,35,0.00
2008,01,27,06,36,0.00
2008,01,27,06,37,0.00
2008,01,27,06,38,0.00
2008,01,27,06,39,0.00
2008,01,27,06,40,0.00
2008,01,27,06,41,0.00
2008,01,27,06,42,0.00
2008,01,27,06,43,0.00
2008,01,27,06,44,0.00
2008,01,27,06,45,0.00
2008,01,27,06,46,0.00
2008,01,27,06,47,0.00
2008,01,27,06,48,0.00
2008,01,27,06,49,0.00
2008,01,27,06,50,0.00
2008,01,27,06,51,0.00
2008,01,27,06,52,0.00
2008,01,27,06,53,0.00
2008,01,27,06,54,0.00
2008,01,27,06,55,0.00
2008,01,27,06,56,0.00
2008,01,27,06,57,0.00
2008,01,27,06,58,0.00
2008,01,27,06,59,0.00
2008,01,27,07,00,0.00
2008,01,27,07,01,0.00
2008,01,27,07,02,0.00
2008,01,27,07,03,0.00
2008,01,27,07,04,0.00
2008,01,27,07,05,0.00
2008,01,27,07,06,0.00
2008,01,27,07,07,0.00
2008,01,27,07,08,0.00
2008,01,27,07,09,0.00
2008,01,27,07,10,0.00
2008,01,27,07,11,0.00
2008,01,27,07,12,0.00
2008,01,27,07,13,0.00
2008,01,27,07,14,0.00
2008,01,27,07,15,0.00
2008,01,27,07,16,0.00
2008,01,27,07,17,0.00
2008,01,27,07,18,0.00
2008,01,27,07,19,0.00
2008,01,27,07,20,0.00
2008,01,27,07,21,0.00
2008,01,27,07,22,0.00
2008,01,27,07,23,0.00
2008,01,27,07,24,0.00
2008,01,27,07,25,0.00
2008,01,27,07,26,0.00
2008,01,27,07,27,0.00
2008,01,27,07,28,0.00
2008,01,27,07,29,0.00
2008,01,27,07,30,0.00
2008,01,27,07,31,0.00
2008,01,27,07,32,0.00
2008,01,27,07,33,0.00
2008,01,27,07,34,0.00
2008,01,27,07,35,0.00
2008,01,27,07,36,0.00
2008,01,27,07,37,0.00
2008,01,27,07,38,0.00
2008,01,27,07,39,0.00
2008,01,27,07,40,0.00
2008,01,27,07,41,0.00
2008,01,27,07,42,0.00
2008,01,27,07,43,0.00
2008,01,27,07,44,0.00
2008,01,27,07,45,0.00
2008,01,27,07,46,0.00
2008,01,27,07,47,0.00
2008,01,27,07,48,0.00
2008,01,27,07,49,0.00
2008,01,27,07,50,0.00
2008,01,27,07,51,0.00
2008,01,27,07,52,0.00
2008,01,27,07,53,0.00
2008,01,27,07,54,3.80
2008,01,27,07,55,5.00
2008,01,27,07,56,5.00
2008,01,27,07,57,5.40
2008,01,27,07,58,7.00
2008,01,27,07,59,7.00
2008,01,27,08,00,8.10
2008,01,27,08,01,9.00
2008,01,27,08,02,9.00
2008,01,27,08,03,10.70
2008,01,27,08,04,11.00
2008,01,27,08,05,11.10
2008,01,27,08,06,12.00
2008,01,27,08,07,12.00
2008,01,27,08,08,12.00
2008,01,27,08,09,12.00
2008,01,27,08,10,13.30
2008,01,27,08,11,14.00
2008,01,27,08,12,14.00
2008,01,27,08,13,14.00
2008,01,27,08,14,14.00
2008,01,27,08,15,14.50
2008,01,27,08,16,16.00
2008,01,27,08,17,16.00
2008,01,27,08,18,17.20
2008,01,27,08,19,18.00
2008,01,27,08,20,18.00
2008,01,27,08,21,18.00
2008,01,27,08,22,19.00
2008,01,27,08,23,19.00
2008,01,27,08,24,19.00
2008,01,27,08,25,19.80
2008,01,27,08,26,21.00
2008,01,27,08,27,21.00
2008,01,27,08,28,21.00
2008,01,27,08,29,21.00
2008,01,27,08,30,21.00
2008,01,27,08,31,21.30
2008,01,27,08,32,23.00
2008,01,27,08,33,23.00
2008,01,27,08,34,23.00
2008,01,27,08,35,23.00
2008,01,27,08,36,23.00
2008,01,27,08,37,23.00
2008,01,27,08,38,23.00
2008,01,27,08,39,23.00
2008,01,27,08,40,23.00
2008,01,27,08,41,23.00
2008,01,27,08,42,22.20
2008,01,27,08,43,21.00
2008,01,27,08,44,21.00
2008,01,27,08,45,21.00
2008,01,27,08,46,21.00
2008,01,27,08,47,22.80
2008,01,27,08,48,23.00
2008,01,27,08,49,23.00
2008,01,27,08,50,23.00
2008,01,27,08,51,23.00
2008,01,27,08,52,23.00
2008,01,27,08,53,23.00
2008,01,27,08,54,23.00
2008,01,27,08,55,23.00
2008,01,27,08,56,23.00
2008,01,27,08,57,23.00
2008,01,27,08,58,23.00
2008,01,27,08,59,23.00
2008,01,27,09,00,23.00
2008,01,27,09,01,23.00
2008,01,27,09,02,23.00
2008,01,27,09,03,23.00
2008,01,27,09,04,24.80
2008,01,27,09,05,25.00
2008,01,27,09,06,25.20
2008,01,27,09,07,27.30
2008,01,27,09,08,31.20
2008,01,27,09,09,36.00
2008,01,27,09,10,40.80
2008,01,27,09,11,44.90
2008,01,27,09,12,50.00
2008,01,27,09,13,53.90
2008,01,27,09,14,58.30
2008,01,27,09,15,60.00
2008,01,27,09,16,59.30
2008,01,27,09,17,56.20
2008,01,27,09,18,52.30
2008,01,27,09,19,46.50
2008,01,27,09,20,40.00
2008,01,27,09,21,35.40
2008,01,27,09,22,31.80
2008,01,27,09,23,30.00
2008,01,27,09,24,30.00
2008,01,27,09,25,30.00
2008,01,27,09,26,31.10
2008,01,27,09,27,32.00
2008,01,27,09,28,32.70
2008,01,27,09,29,34.60
2008,01,27,09,30,36.90
2008,01,27,09,31,39.20
2008,01,27,09,32,39.80
2008,01,27,09,33,39.00
2008,01,27,09,34,37.20
2008,01,27,09,35,35.00
2008,01,27,09,36,36.30
2008,01,27,09,37,58.00
2008,01,27,09,38,65.00
2008,01,27,09,39,206.10
2008,01,27,09,40,206.20
2008,01,27,09,41,204.90
2008,01,27,09,42,213.00
2008,01,27,09,43,213.50
2008,01,27,09,44,215.30
2008,01,27,09,45,217.40
2008,01,27,09,46,220.40
2008,01,27,09,47,222.80
2008,01,27,09,48,223.20
2008,01,27,09,49,225.40
2008,01,27,09,50,227.60
2008,01,27,09,51,229.00
2008,01,27,09,52,229.50
2008,01,27,09,53,231.20
2008,01,27,09,54,232.00
2008,01,27,09,55,233.60
2008,01,27,09,56,238.80
2008,01,27,09,57,218.90
2008,01,27,09,58,103.80
2008,01,27,09,59,78.70
2008,01,27,10,00,41.60
2008,01,27,10,01,37.90
2008,01,27,10,02,35.70
2008,01,27,10,03,35.00
2008,01,27,10,04,35.00
2008,01,27,10,05,37.10
2008,01,27,10,06,39.20
2008,01,27,10,07,39.70
2008,01,27,10,08,39.00
2008,01,27,10,09,39.50
2008,01,27,10,10,42.50
2008,01,27,10,11,48.90
2008,01,27,10,12,56.60
2008,01,27,10,13,64.80
2008,01,27,10,14,74.50
2008,01,27,10,15,80.00
2008,01,27,10,16,86.10
2008,01,27,10,17,93.60
2008,01,27,10,18,101.50
2008,01,27,10,19,105.90
2008,01,27,10,20,111.40
2008,01,27,10,21,115.60
2008,01,27,10,22,114.10
2008,01,27,10,23,112.70
2008,01,27,10,24,111.50
2008,01,27,10,25,113.40
2008,01,27,10,26,115.00
2008,01,27,10,27,119.00
2008,01,27,10,28,121.00
2008,01,27,10,29,131.40
2008,01,27,10,30,136.80
2008,01,27,10,31,139.00
2008,01,27,10,32,139.00
2008,01,27,10,33,138.40
2008,01,27,10,34,137.80
2008,01,27,10,35,139.00
2008,01,27,10,36,139.00
2008,01,27,10,37,137.50
2008,01,27,10,38,140.40
2008,01,27,10,39,140.90
2008,01,27,10,40,140.50
2008,01,27,10,41,149.00
2008,01,27,10,42,149.00
2008,01,27,10,43,284.50
2008,01,27,10,44,438.50
2008,01,27,10,45,429.00
2008,01,27,10,46,477.20
2008,01,27,10,47,515.50
2008,01,27,10,48,497.90
2008,01,27,10,49,288.00
2008,01,27,10,50,288.00
2008,01,27,10,51,273.20
2008,01,27,10,52,260.00
2008,01,27,10,53,249.80
2008,01,27,10,54,234.90
2008,01,27,10,55,262.00
2008,01,27,10,56,218.50
2008,01,27,10,57,216.60
2008,01,27,10,58,228.80
2008,01,27,10,59,255.00
2008,01,27,11,00,241.00
2008,01,27,11,01,241.00
2008,01,27,11,02,241.00
2008,01,27,11,03,241.00
2008,01,27,11,04,473.90
2008,01,27,11,05,506.10
2008,01,27,11,06,498.00
2008,01,27,11,07,492.70
2008,01,27,11,08,486.90
2008,01,27,11,09,482.50
2008,01,27,11,10,482.00
2008,01,27,11,11,484.00
2008,01,27,11,12,458.60
2008,01,27,11,13,498.80
2008,01,27,11,14,510.60
2008,01,27,11,15,466.00
2008,01,27,11,16,397.00
2008,01,27,11,17,435.80
2008,01,27,11,18,491.20
2008,01,27,11,19,485.20
2008,01,27,11,20,480.80
2008,01,27,11,21,480.00
2008,01,27,11,22,206.40
2008,01,27,11,23,219.10
2008,01,27,11,24,393.20
2008,01,27,11,25,454.40
2008,01,27,11,26,455.90
2008,01,27,11,27,463.00
2008,01,27,11,28,465.40
2008,01,27,11,29,464.00
2008,01,27,11,30,422.40
2008,01,27,11,31,365.50
2008,01,27,11,32,336.00
2008,01,27,11,33,349.20
2008,01,27,11,34,406.00
2008,01,27,11,35,446.50
2008,01,27,11,36,446.20
2008,01,27,11,37,438.20
2008,01,27,11,38,432.60
2008,01,27,11,39,432.00
2008,01,27,11,40,436.50
2008,01,27,11,41,440.00
2008,01,27,11,42,438.10
2008,01,27,11,43,453.40
2008,01,27,11,44,478.20
2008,01,27,11,45,427.90
2008,01,27,11,46,396.00
2008,01,27,11,47,316.10
2008,01,27,11,48,253.10
2008,01,27,11,49,248.50
2008,01,27,11,50,233.00
2008,01,27,11,51,166.10
2008,01,27,11,52,140.50
2008,01,27,11,53,140.80
2008,01,27,11,54,144.80
2008,01,27,11,55,149.90
2008,01,27,11,56,167.20
2008,01,27,11,57,223.90
2008,01,27,11,58,295.00
2008,01,27,11,59,328.90
2008,01,27,12,00,427.60
2008,01,27,12,01,457.00
2008,01,27,12,02,307.30
2008,01,27,12,03,220.70
2008,01,27,12,04,221.00
2008,01,27,12,05,385.70
2008,01,27,12,06,400.80
2008,01,27,12,07,419.00
2008,01,27,12,08,410.00
2008,01,27,12,09,410.00
2008,01,27,12,10,410.00
2008,01,27,12,11,499.00
2008,01,27,12,12,552.20
2008,01,27,12,13,526.80
2008,01,27,12,14,519.70
2008,01,27,12,15,520.80
2008,01,27,12,16,514.00
2008,01,27,12,17,531.80
2008,01,27,12,18,542.30
2008,01,27,12,19,515.60
2008,01,27,12,20,500.30
2008,01,27,12,21,503.00
2008,01,27,12,22,269.90
2008,01,27,12,23,244.00
2008,01,27,12,24,292.80
2008,01,27,12,25,476.00
2008,01,27,12,26,368.00
2008,01,27,12,27,282.80
2008,01,27,12,28,305.20
2008,01,27,12,29,253.80
2008,01,27,12,30,239.30
2008,01,27,12,31,282.80
2008,01,27,12,32,314.40
2008,01,27,12,33,501.00
2008,01,27,12,34,590.40
2008,01,27,12,35,617.00
2008,01,27,12,36,617.00
2008,01,27,12,37,617.00
2008,01,27,12,38,626.70
2008,01,27,12,39,574.10
2008,01,27,12,40,510.00
2008,01,27,12,41,540.60
2008,01,27,12,42,665.40
2008,01,27,12,43,671.00
2008,01,27,12,44,565.70
2008,01,27,12,45,483.60
2008,01,27,12,46,445.10
2008,01,27,12,47,425.00
2008,01,27,12,48,596.50
2008,01,27,12,49,606.00
2008,01,27,12,50,606.00
2008,01,27,12,51,606.00
2008,01,27,12,52,443.10
2008,01,27,12,53,285.40
2008,01,27,12,54,269.40
2008,01,27,12,55,253.80
2008,01,27,12,56,215.40
2008,01,27,12,57,220.50
2008,01,27,12,58,251.00
2008,01,27,12,59,371.00
2008,01,27,13,00,357.70
2008,01,27,13,01,321.00
2008,01,27,13,02,250.40
2008,01,27,13,03,240.90
2008,01,27,13,04,192.40
2008,01,27,13,05,191.50
2008,01,27,13,06,224.40
2008,01,27,13,07,197.00
2008,01,27,13,08,293.00
2008,01,27,13,09,501.80
2008,01,27,13,10,504.60
2008,01,27,13,11,509.90
2008,01,27,13,12,512.00
2008,01,27,13,13,411.70
2008,01,27,13,14,478.50
2008,01,27,13,15,453.90
2008,01,27,13,16,330.00
2008,01,27,13,17,406.80
2008,01,27,13,18,496.40
2008,01,27,13,19,480.60
2008,01,27,13,20,434.00
2008,01,27,13,21,410.00
2008,01,27,13,22,410.00
2008,01,27,13,23,414.00
2008,01,27,13,24,445.20
2008,01,27,13,25,452.00
2008,01,27,13,26,501.20
2008,01,27,13,27,512.00
2008,01,27,13,28,385.70
2008,01,27,13,29,308.00
2008,01,27,13,30,479.80
2008,01,27,13,31,512.00
2008,01,27,13,32,512.80
2008,01,27,13,33,517.40
2008,01,27,13,34,505.30
2008,01,27,13,35,506.40
2008,01,27,13,36,543.20
2008,01,27,13,37,549.90
2008,01,27,13,38,553.60
2008,01,27,13,39,486.90
2008,01,27,13,40,556.90
2008,01,27,13,41,561.50
2008,01,27,13,42,565.80
2008,01,27,13,43,570.40
2008,01,27,13,44,573.00
2008,01,27,13,45,560.50
2008,01,27,13,46,522.60
2008,01,27,13,47,510.00
2008,01,27,13,48,600.00
2008,01,27,13,49,605.00
2008,01,27,13,50,525.00
2008,01,27,13,51,284.30
2008,01,27,13,52,283.80
2008,01,27,13,53,288.70
2008,01,27,13,54,285.80
2008,01,27,13,55,281.50
2008,01,27,13,56,282.70
2008,01,27,13,57,291.20
2008,01,27,13,58,304.60
2008,01,27,13,59,300.80
2008,01,27,14,00,305.80
2008,01,27,14,01,290.00
2008,01,27,14,02,286.20
2008,01,27,14,03,295.40
2008,01,27,14,04,321.70
2008,01,27,14,05,350.80
2008,01,27,14,06,378.70
2008,01,27,14,07,602.60
2008,01,27,14,08,592.40
2008,01,27,14,09,601.90
2008,01,27,14,10,603.00
2008,01,27,14,11,595.80
2008,01,27,14,12,586.00
2008,01,27,14,13,578.00
2008,01,27,14,14,546.70
2008,01,27,14,15,508.70
2008,01,27,14,16,573.90
2008,01,27,14,17,557.40
2008,01,27,14,18,512.80
2008,01,27,14,19,466.00
2008,01,27,14,20,505.30
2008,01,27,14,21,556.50
2008,01,27,14,22,559.80
2008,01,27,14,23,554.70
2008,01,27,14,24,551.40
2008,01,27,14,25,547.80
2008,01,27,14,26,548.80
2008,01,27,14,27,554.50
2008,01,27,14,28,561.20
2008,01,27,14,29,568.20
2008,01,27,14,30,570.80
2008,01,27,14,31,572.80
2008,01,27,14,32,575.30
2008,01,27,14,33,578.40
2008,01,27,14,34,580.60
2008,01,27,14,35,582.90
2008,01,27,14,36,568.20
2008,01,27,14,37,554.00
2008,01,27,14,38,448.20
2008,01,27,14,39,335.60
2008,01,27,14,40,331.40
2008,01,27,14,41,392.10
2008,01,27,14,42,375.20
2008,01,27,14,43,304.10
2008,01,27,14,44,292.20
2008,01,27,14,45,319.40
2008,01,27,14,46,384.00
2008,01,27,14,47,434.00
2008,01,27,14,48,393.30
2008,01,27,14,49,364.10
2008,01,27,14,50,144.60
2008,01,27,14,51,123.80
2008,01,27,14,52,110.00
2008,01,27,14,53,98.50
2008,01,27,14,54,93.00
2008,01,27,14,55,86.00
2008,01,27,14,56,79.80
2008,01,27,14,57,74.30
2008,01,27,14,58,69.80
2008,01,27,14,59,69.00
2008,01,27,15,00,69.30
2008,01,27,15,01,71.00
2008,01,27,15,02,73.20
2008,01,27,15,03,75.30
2008,01,27,15,04,76.80
2008,01,27,15,05,82.10
2008,01,27,15,06,90.80
2008,01,27,15,07,99.90
2008,01,27,15,08,108.80
2008,01,27,15,09,116.30
2008,01,27,15,10,121.50
2008,01,27,15,11,123.00
2008,01,27,15,12,124.30
2008,01,27,15,13,125.00
2008,01,27,15,14,125.00
2008,01,27,15,15,125.00
2008,01,27,15,16,125.50
2008,01,27,15,17,127.00
2008,01,27,15,18,127.00
2008,01,27,15,19,127.60
2008,01,27,15,20,130.60
2008,01,27,15,21,132.00
2008,01,27,15,22,130.30
2008,01,27,15,23,126.80
2008,01,27,15,24,120.60
2008,01,27,15,25,117.50
2008,01,27,15,26,115.30
2008,01,27,15,27,111.80
2008,01,27,15,28,104.80
2008,01,27,15,29,95.70
2008,01,27,15,30,87.70
2008,01,27,15,31,81.30
2008,01,27,15,32,81.20
2008,01,27,15,33,83.00
2008,01,27,15,34,82.30
2008,01,27,15,35,79.20
2008,01,27,15,36,75.40
2008,01,27,15,37,72.80
2008,01,27,15,38,73.40
2008,01,27,15,39,75.60
2008,01,27,15,40,72.10
2008,01,27,15,41,66.70
2008,01,27,15,42,64.50
2008,01,27,15,43,62.00
2008,01,27,15,44,60.00
2008,01,27,15,45,60.00
2008,01,27,15,46,60.00
2008,01,27,15,47,61.50
2008,01,27,15,48,62.00
2008,01,27,15,49,61.80
2008,01,27,15,50,59.70
2008,01,27,15,51,57.40
2008,01,27,15,52,56.00
2008,01,27,15,53,56.00
2008,01,27,15,54,56.00
2008,01,27,15,55,56.00
2008,01,27,15,56,56.00
2008,01,27,15,57,56.00
2008,01,27,15,58,56.00
2008,01,27,15,59,56.00
2008,01,27,16,00,56.00
2008,01,27,16,01,56.80
2008,01,27,16,02,57.00
2008,01,27,16,03,56.00
2008,01,27,16,04,56.00
2008,01,27,16,05,57.70
2008,01,27,16,06,58.10
2008,01,27,16,07,60.00
2008,01,27,16,08,59.50
2008,01,27,16,09,58.00
2008,01,27,16,10,57.00
2008,01,27,16,11,54.80
2008,01,27,16,12,53.30
2008,01,27,16,13,51.40
2008,01,27,16,14,51.00
2008,01,27,16,15,53.10
2008,01,27,16,16,54.40
2008,01,27,16,17,56.00
2008,01,27,16,18,55.20
2008,01,27,16,19,53.50
2008,01,27,16,20,49.40
2008,01,27,16,21,44.90
2008,01,27,16,22,40.80
2008,01,27,16,23,38.80
2008,01,27,16,24,34.80
2008,01,27,16,25,33.00
2008,01,27,16,26,32.70
2008,01,27,16,27,32.00
2008,01,27,16,28,30.90
2008,01,27,16,29,28.70
2008,01,27,16,30,28.00
2008,01,27,16,31,26.30
2008,01,27,16,32,25.90
2008,01,27,16,33,25.00
2008,01,27,16,34,25.00
2008,01,27,16,35,24.20
2008,01,27,16,36,23.00
2008,01,27,16,37,21.80
2008,01,27,16,38,19.60
2008,01,27,16,39,19.00
2008,01,27,16,40,19.00
2008,01,27,16,41,18.00
2008,01,27,16,42,18.00
2008,01,27,16,43,16.60
2008,01,27,16,44,14.00
2008,01,27,16,45,14.00
2008,01,27,16,46,12.70
2008,01,27,16,47,12.00
2008,01,27,16,48,12.00
2008,01,27,16,49,11.10
2008,01,27,16,50,11.00
2008,01,27,16,51,10.50
2008,01,27,16,52,9.00
2008,01,27,16,53,9.00
2008,01,27,16,54,7.80
2008,01,27,16,55,7.00
2008,01,27,16,56,7.00
2008,01,27,16,57,7.00
2008,01,27,16,58,5.00
2008,01,27,16,59,5.00
2008,01,27,17,00,5.00
2008,01,27,17,01,5.00
2008,01,27,17,02,5.00
2008,01,27,17,03,1.80
2008,01,27,17,04,0.00
2008,01,27,17,05,0.00
2008,01,27,17,06,0.00
2008,01,27,17,07,0.00
2008,01,27,17,08,0.00
2008,01,27,17,09,0.00
2008,01,27,17,10,0.00
2008,01,27,17,11,0.00
2008,01,27,17,12,0.00
2008,01,27,17,13,0.00
2008,01,27,17,14,0.00
2008,01,27,17,15,0.00
2008,01,27,17,16,0.00
2008,01,27,17,17,0.00
2008,01,27,17,18,0.00
2008,01,27,17,19,0.00
2008,01,27,17,20,0.00
2008,01,27,17,21,0.00
2008,01,27,17,22,0.00
2008,01,27,17,23,0.00
2008,01,27,17,24,0.00
2008,01,27,17,25,0.00
2008,01,27,17,26,0.00
2008,01,27,17,27,0.00
2008,01,27,17,28,0.00
2008,01,27,17,29,0.00
2008,01,27,17,30,0.00
2008,01,27,17,31,0.00
2008,01,27,17,32,0.00
2008,01,27,17,33,0.00
2008,01,27,17,34,0.00
2008,01,27,17,35,0.00
2008,01,27,17,36,0.00
2008,01,27,17,37,0.00
2008,01,27,17,38,0.00
2008,01,27,17,39,0.00